Epoch 2005 Dec. 16.0 TT = JDT 2453720.5
T 2006 Jan. 2.03865 TT MPCW
q 3.1443842 (2000.0) P Q
n 0.10740819 Peri. 323.53658 -0.56064380 +0.80789658
a 4.3830636 Node 271.67617 -0.71028953 -0.58193378
e 0.2826058 Incl. 10.46799 -0.42563754 -0.09303864
P 9.18
From 254 observations 2005 Mar. 11-2016 Aug. 4, mean residual 0".5.